GFSNW_prec_cloud_195.txt.gz
Cloud_Cover
100 100 100 100 100 100 100 100 100 100 100 100 100 100 100 100 100 100 100 100 100 100 100 100 100 100 100 100 100 100 100 100 82 100 100 100 100 100 100 100 100 100 100 97
100 100 100 100 100 100 100 100 100 100 100 100 100 100 99 99 100 100 100 100 100 100 100 100 100 100 100 100 100 100 100 100 100 100 100 100 100 100 100 100 100 100 100 100
100 100 100 100 100 100 100 100 100 100 100 100 100 100 100 100 100 100 100 100 100 100 100 100 98 100 100 100 90 82 100 100 100 100 100 100 100 100 100 100 99 99 49 23
100 100 100 100 100 100 100 100 100 100 100 100 100 100 100 100 100 100 100 100 100 100 100 100 100 100 100 100 100 100 100 100 100 100 100 100 100 81 32 74 26 56 7 6
100 100 100 100 100 100 100 100 100 100 100 100 100 100 100 100 100 100 100 100 100 100 100 100 100 100 100 100 100 100 100 100 100 58 100 100 6 0 92 3 0 5 5 0
100 100 100 100 100 100 100 100 100 100 100 100 100 100 100 100 100 100 100 100 100 100 100 100 100 100 100 100 100 100 100 100 100 30 91 18 4 56 0 0 0 0 0 2
100 100 100 100 100 100 100 100 100 100 100 100 100 100 100 100 100 100 100 100 100 100 100 100 100 100 100 100 100 100 100 100 100 52 70 86 4 0 0 2 0 0 3 1
100 100 100 100 100 100 100 100 100 100 100 100 100 100 100 100 100 100 100 100 100 100 100 100 100 100 100 100 100 100 100 100 100 100 91 10 0 0 9 99 5 0 95 93
100 100 100 100 100 100 100 100 100 100 100 100 100 100 100 100 100 98 95 97 100 100 100 100 100 99 100 100 100 93 51 95 100 100 100 100 0 4 14 74 4 1 100 79
100 100 100 100 100 100 100 100 100 100 100 100 100 100 100 90 94 92 100 100 100 100 87 19 23 6 51 16 14 5 5 87 98 100 91 11 4 19 12 80 42 71 58 100
100 100 100 100 100 100 100 100 100 100 100 100 100 98 67 89 73 7 92 94 100 100 77 30 5 14 22 12 4 5 5 5 5 5 88 80 100 7 100 94 97 73 81 100
100 100 100 100 96 100 100 100 100 100 100 100 100 100 12 8 5 6 76 100 100 56 5 5 25 92 85 100 13 17 5 61 100 100 100 100 96 90 100 100 100 100 26 100
100 100 100 65 100 100 100 100 100 100 100 100 100 100 100 100 46 5 5 2 0 1 4 36 7 5 5 5 4 2 78 86 98 100 95 78 100 10 89 93 100 99 100 100
100 100 100 100 100 100 100 100 100 100 100 100 100 100 52 85 75 5 2 0 4 14 30 69 72 17 84 5 8 4 13 95 100 100 17 100 100 100 67 12 100 78 93 100
100 100 100 97 60 100 100 100 100 100 55 50 14 13 24 67 7 2 4 5 8 5 6 68 80 5 9 5 4 5 80 4 56 71 75 100 96 94 98 2 2 6 7 99
100 100 100 100 88 44 13 78 100 91 5 96 5 3 0 5 0 5 5 5 5 21 62 22 5 5 45 64 39 47 91 75 35 16 41 100 19 0 5 6 5 92 9 20
27 10 9 40 77 53 29 47 6 27 5 4 5 5 4 5 2 5 8 3 4 4 5 4 8 20 29 10 20 59 20 2 11 94 92 60 26 22 10 2 5 5 2 45
35 38 35 39 8 4 12 3 0 0 5 5 5 5 6 35 4 3 0 5 14 84 100 100 100 100 100 100 100 100 92 95 85 89 100 58 76 100 100 100 100 22 5 5
0 0 0 0 6 24 36 5 0 3 35 52 19 5 38 62 31 5 20 80 76 84 100 98 100 100 100 100 95 92 100 87 95 90 36 68 86 73 65 86 100 59 14 5
0 2 4 39 5 3 1 14 71 87 36 33 84 5 40 28 33 12 32 98 83 97 56 100 94 93 100 94 80 57 13 66 82 100 100 100 90 86 100 71 92 100 100 63
19 50 88 7 5 31 91 99 100 31 46 7 5 5 5 30 36 18 66 94 100 82 33 99 69 100 100 100 100 77 100 92 53 10 85 82 100 100 100 61 8 96 100 99
18 24 48 70 52 51 78 66 70 98 43 5 48 64 76 67 16 32 28 48 79 13 72 96 74 100 100 100 100 5 89 100 100 95 78 100 74 81 95 98 89 99 100 96
25 75 29 14 35 96 91 88 95 95 84 94 99 100 100 100 100 100 65 59 72 28 62 65 56 82 100 100 91 92 100 19 39 5 58 59 100 98 100 92 73 99 100 100
90 69 95 64 87 8 96 100 100 100 96 100 100 100 99 81 100 70 79 10 58 44 41 62 98 100 100 94 10 100 100 69 97 100 100 100 100 98 100 99 100 100 100 100
90 80 54 12 5 42 72 100 100 100 100 100 97 97 93 62 100 100 88 48 32 44 79 100 100 100 99 6 12 97 100 100 100 100 100 100 100 100 100 100 100 100 100 100
73 27 38 42 67 100 100 100 100 100 86 74 49 46 96 100 100 100 100 98 80 100 100 100 100 100 82 80 100 100 100 100 100 100 100 100 100 100 99 97 100 100 100 100
89 96 61 82 75 52 30 100 100 100 93 89 80 89 64 99 100 100 100 100 100 100 100 100 100 92 100 98 86 100 100 100 100 100 100 100 100 100 100 100 89 100 100 100

GFSNW_prec_cloud_198.txt.gz
Cloud_Cover
5 81 100 100 100 100 100 100 100 100 100 100 100 100 100 100 100 100 100 99 100 100 100 100 100 100 95 33 5 30 98 56 86 100 100 100 100 100 100 100 32 44 68 10
18 29 100 100 100 100 100 100 100 100 100 100 100 100 100 100 100 100 100 100 100 100 100 100 100 100 100 100 100 58 100 89 100 100 100 100 100 100 100 100 100 99 100 10
69 79 100 100 100 100 100 100 100 100 100 100 100 100 100 100 100 100 100 100 100 100 100 100 100 100 100 100 100 88 100 100 100 42 94 96 100 100 100 100 100 100 83 100
63 100 100 100 100 100 100 100 100 100 100 100 100 100 100 100 100 100 100 100 100 100 100 100 100 100 100 100 100 100 100 100 100 100 100 100 100 76 100 100 100 100 100 100
100 100 100 100 100 100 100 100 100 100 100 100 100 100 100 100 100 100 100 100 100 100 100 100 100 100 100 100 100 100 100 100 100 100 100 95 98 100 100 100 100 100 100 52
100 100 100 100 100 100 100 100 100 100 100 100 100 100 100 100 100 100 100 100 100 100 100 100 100 100 100 100 100 100 100 100 100 100 100 100 98 100 100 100 100 99 68 12
100 100 100 100 100 100 100 100 100 100 100 100 100 100 100 100 100 100 100 100 100 100 100 100 100 100 100 100 100 100 100 100 91 36 16 62 97 100 100 22 5 5 0 0
100 100 100 100 100 100 100 100 100 100 100 100 100 100 100 100 100 100 100 100 100 100 100 100 100 100 100 100 100 100 100 100 100 100 87 96 92 100 94 11 2 5 5 4
100 100 100 100 100 100 98 100 100 100 100 100 100 100 100 100 100 100 100 100 100 100 100 100 100 100 100 100 100 100 100 100 100 100 96 86 15 4 1 66 21 2 44 4
100 100 100 100 100 100 100 100 100 100 100 100 100 100 100 100 100 100 100 100 100 100 98 99 100 100 100 100 100 93 37 79 96 99 100 63 49 79 4 11 3 5 5 5
100 100 100 100 100 100 100 100 100 100 100 100 100 100 100 100 100 100 100 100 100 100 100 95 100 94 66 64 74 40 5 5 18 38 92 75 34 74 58 65 31 5 24 8
100 100 100 100 100 100 100 100 100 100 100 100 100 100 100 100 100 100 100 100 100 100 100 95 84 97 81 23 5 3 5 4 14 64 94 96 100 98 94 98 85 6 92 100
100 100 100 100 100 100 100 100 100 100 100 100 100 100 100 100 100 100 100 100 100 100 100 86 56 97 80 48 8 5 0 3 36 32 15 100 100 100 100 100 21 12 39 100
100 100 100 100 100 100 100 100 100 100 100 100 87 79 93 100 100 100 100 100 100 100 100 79 74 25 5 5 2 5 2 1 0 42 5 100 100 100 100 100 84 8 5 64
100 100 100 100 100 100 100 100 100 100 100 100 63 4 9 100 100 100 100 100 100 100 100 59 91 54 5 5 5 4 0 0 4 1 0 30 44 92 100 100 100 100 27 22
19 5 86 100 94 7 4 97 100 100 100 13 34 96 17 62 100 97 74 40 19 14 22 61 30 5 12 39 72 0 0 0 0 2 0 0 0 0 38 90 99 3 6 4
17 5 5 5 22 6 6 21 92 100 100 100 87 10 5 5 5 5 5 56 82 82 93 76 5 24 88 48 5 74 16 10 2 23 26 59 93 100 100 94 100 100 100 54
2 2 1 3 5 2 5 3 3 3 3 5 5 5 10 12 5 5 4 5 5 7 4 5 5 5 34 66 70 78 94 100 100 100 90 100 51 74 84 93 85 99 100 100
1 1 2 0 7 5 5 3 0 0 3 34 10 5 23 14 9 5 5 5 17 8 72 9 5 85 67 64 86 96 99 100 98 95 99 88 37 71 96 100 100 100 89 90
0 0 5 20 12 0 5 5 5 5 6 16 66 5 17 5 5 5 32 43 46 94 100 35 89 88 55 70 100 70 72 97 96 100 69 90 91 88 96 100 89 74 85 97
75 98 96 5 2 49 71 72 27 45 23 20 9 5 5 5 33 29 40 41 83 98 93 82 77 49 100 100 91 100 98 8 72 93 99 99 100 100 100 96 87 90 86 100
22 32 82 34 94 57 49 74 67 24 45 58 83 97 100 56 73 64 76 11 92 77 85 96 72 48 100 100 83 60 16 8 93 77 100 100 66 42 99 100 100 92 74 100
12 6 9 10 74 86 86 73 8 81 21 24 80 100 100 81 96 100 82 91 82 46 78 80 100 89 85 100 92 91 71 32 72 95 100 100 100 100 100 98 98 94 92 100
29 14 52 32 80 38 27 82 6 7 6 78 83 100 98 89 94 100 100 26 12 100 59 70 91 99 100 100 42 6 16 85 100 100 100 100 100 100 100 100 100 93 100 100
67 51 44 12 5 5 88 80 34 62 89 61 39 97 98 100 100 100 100 100 76 43 34 87 100 100 100 100 97 100 100 100 100 100 100 100 100 100 100 100 100 100 100 100
77 34 76 6 15 5 62 65 96 64 14 51 48 58 100 95 86 99 94 100 100 98 87 100 96 97 100 96 86 100 100 100 100 100 100 100 100 100 100 100 100 100 100 100
96 66 16 8 46 67 79 52 97 100 49 97 94 84 80 58 99 92 77 100 100 100 100 100 99 87 100 100 100 100 100 100 100 100 100 100 100 100 100 100 100 82 99 100

GFSNW_prec_cloud_201.txt.gz
Cloud_Cover
5 5 5 77 95 100 100 100 100 100 100 100 100 100 100 100 100 100 100 100 100 100 100 100 100 100 95 96 64 100 100 100 100 100 100 100 100 100 100 100 53 92 100 8
24 2 27 94 93 100 100 100 100 100 100 100 100 100 100 100 100 100 100 100 100 100 100 100 100 100 98 100 97 100 92 95 100 100 96 74 98 98 100 100 100 100 98 31
79 3 100 100 96 100 100 100 100 100 100 100 100 100 100 100 100 100 100 100 100 100 100 100 100 100 100 100 100 100 100 100 100 100 100 100 100 100 100 100 99 89 74 98
42 94 100 100 41 100 100 100 100 100 100 100 100 100 100 100 100 100 100 100 100 100 100 100 100 100 100 100 100 100 100 100 100 100 100 100 100 100 100 100 100 100 33 89
5 94 100 100 59 100 100 100 100 100 100 100 100 100 100 100 100 100 100 100 100 100 100 100 100 100 100 100 100 100 100 100 100 100 100 99 98 100 100 100 100 100 100 100
81 72 100 100 100 100 100 100 100 100 100 100 100 100 100 100 100 100 100 100 100 100 90 100 100 100 100 100 100 100 100 100 100 100 100 100 100 100 100 100 100 100 99 99
100 100 100 100 100 100 100 100 100 100 100 100 100 100 100 100 100 100 100 100 100 100 100 100 100 100 100 100 100 100 100 100 100 100 100 89 99 100 100 100 93 100 97 62
100 100 100 100 100 100 100 100 84 100 100 100 100 100 100 100 100 100 100 100 100 100 100 100 100 100 100 100 100 100 100 100 100 100 100 100 100 100 100 55 5 63 38 30
100 100 100 100 100 100 100 100 100 100 100 100 100 100 100 100 100 100 100 100 100 100 100 100 100 100 100 100 100 100 100 100 100 100 100 100 100 100 99 72 15 86 55 3
100 100 100 100 100 100 100 100 100 100 100 100 100 100 100 100 100 100 100 100 100 100 100 100 100 100 100 100 100 100 100 100 100 100 100 100 86 79 100 54 35 18 6 3
100 100 100 100 100 100 100 100 100 98 16 95 100 100 100 100 80 98 100 100 100 100 100 100 100 100 100 100 100 100 100 100 100 94 61 98 36 18 34 25 10 4 5 3
100 100 100 100 100 100 100 100 99 71 100 100 100 100 100 100 98 98 100 100 100 100 100 100 100 100 100 100 100 100 100 100 100 72 78 20 5 5 35 71 51 6 5 7
100 100 100 100 100 100 100 100 100 100 100 100 100 100 100 100 100 100 100 100 100 92 99 100 100 100 100 100 100 100 100 100 100 100 100 100 76 5 4 82 100 100 100 84
100 100 100 100 100 100 100 100 100 100 100 100 100 100 100 100 100 100 100 100 100 100 90 81 100 100 100 100 100 100 100 93 96 58 49 13 0 3 5 6 96 100 100 100
100 100 100 100 100 100 100 100 100 100 100 100 100 100 100 100 100 100 100 99 93 100 100 99 69 51 51 99 98 95 81 38 5 5 4 0 0 0 0 5 4 94 100 100
100 100 100 100 100 100 100 100 100 100 100 100 100 100 100 100 100 100 100 100 100 100 100 100 8 4 3 37 45 7 7 5 4 0 0 0 0 0 0 1 0 0 0 3
100 100 100 100 100 100 100 100 100 100 100 100 100 100 100 100 100 96 94 83 99 100 100 96 21 5 47 63 5 0 1 2 4 5 13 4 3 60 88 93 65 86 66 36
64 59 56 92 95 83 96 100 100 100 100 58 39 79 36 86 95 91 7 13 26 58 56 8 5 4 46 74 4 25 89 100 94 97 100 100 66 24 5 54 100 99 76 96
17 5 8 14 71 6 22 5 61 100 99 100 63 11 49 79 5 5 6 5 12 5 8 7 5 54 51 55 18 45 100 77 61 8 5 12 9 5 56 83 71 63 91 100
0 0 5 24 5 8 25 89 7 13 46 89 38 5 35 5 6 10 5 64 19 73 13 64 73 12 4 10 40 5 5 5 5 5 5 6 34 100 100 100 100 100 100 100
5 79 72 4 6 6 10 69 16 13 5 18 25 5 5 5 17 7 18 52 83 82 29 68 75 60 73 65 5 28 5 4 5 9 37 51 77 96 77 88 86 98 100 100
16 11 58 31 79 13 14 86 49 6 11 35 18 85 69 42 13 18 45 12 61 80 73 99 74 52 99 81 76 21 8 5 55 57 70 98 100 100 84 97 95 100 98 98
5 5 5 6 31 18 7 96 35 35 7 11 96 99 92 84 91 80 47 96 76 95 95 39 12 6 67 100 100 98 82 82 93 49 97 100 100 100 100 100 100 100 91 100
46 20 8 5 62 30 39 14 5 5 5 22 59 98 100 99 76 68 95 70 50 99 96 18 95 100 99 100 99 98 73 92 100 100 100 100 100 100 100 100 100 98 80 100
74 16 25 22 5 15 44 34 5 5 11 7 50 95 86 96 93 66 94 95 62 57 89 98 95 89 97 100 100 72 100 100 100 100 100 100 100 100 100 100 100 100 94 100
10 63 87 26 21 30 79 84 5 13 20 70 56 68 100 98 77 99 45 73 67 71 94 97 100 86 100 100 100 100 100 100 100 100 100 100 100 100 96 100 100 100 98 100
80 92 62 6 36 6 63 40 5 6 5 48 78 96 90 62 100 88 76 35 100 96 95 100 74 90 89 100 100 100 100 100 100 100 100 100 100 100 98 67 92 83 95 100

GFSNW_prec_cloud_204.txt.gz
Cloud_Cover
78 3 2 6 26 10 32 100 100 100 100 100 100 100 100 100 100 100 100 100 100 100 100 93 100 92 100 94 100 100 100 100 100 100 100 100 99 100 100 100 88 82 92 97
100 97 4 52 100 100 31 100 100 100 100 100 100 100 100 100 100 100 100 100 100 99 99 100 100 100 98 97 100 100 100 100 100 96 100 100 100 99 100 100 100 99 100 100
25 100 77 100 100 100 77 100 100 100 100 100 100 100 100 100 100 100 100 100 100 100 100 100 100 100 100 100 99 100 100 100 100 100 100 96 92 100 100 100 100 100 100 100
14 81 100 100 100 100 100 100 100 100 100 100 100 100 100 100 100 100 100 100 100 100 100 100 100 100 100 100 100 100 100 100 100 100 100 68 100 100 100 100 100 99 97 87
5 30 100 100 100 100 100 100 100 100 100 82 100 100 100 100 100 100 100 100 100 100 100 100 100 100 100 100 100 100 100 100 100 100 100 100 100 100 100 100 100 100 100 87
88 5 99 100 100 100 100 100 100 88 100 100 100 100 100 100 100 100 100 100 100 100 100 100 100 100 100 100 99 100 100 100 100 100 100 100 100 100 100 100 100 100 100 100
100 12 100 100 100 100 100 100 83 100 100 100 100 100 100 100 100 100 100 100 100 100 100 100 100 100 100 100 100 100 100 100 100 98 77 82 82 100 100 100 100 100 100 96
100 52 100 100 80 100 100 100 100 100 100 100 100 100 100 100 100 100 100 100 100 100 100 100 100 100 100 100 100 100 100 100 100 100 77 17 91 95 26 12 100 100 100 100
96 100 100 80 11 100 100 100 100 85 79 100 76 100 100 100 100 100 100 100 100 100 100 100 100 100 100 100 100 100 100 100 100 100 100 100 100 100 100 78 63 100 100 65
100 100 100 100 96 97 97 100 100 94 100 100 100 100 100 100 100 100 100 100 100 100 100 100 100 100 100 97 85 100 100 100 100 100 100 100 81 74 74 66 99 98 77 78
100 100 100 100 100 100 100 100 100 100 100 100 100 100 100 100 100 100 100 100 100 100 100 100 100 100 100 100 100 100 100 100 100 100 97 92 100 100 100 100 97 98 24 5
100 100 100 100 100 100 100 100 100 100 100 100 100 100 100 100 100 100 100 100 100 100 100 100 100 100 92 86 96 100 100 100 100 99 100 100 77 65 48 92 100 82 14 5
100 100 100 100 100 100 100 100 100 100 100 100 100 100 100 100 100 100 100 100 100 100 100 100 100 100 100 84 72 94 99 89 41 4 5 6 5 26 3 5 5 5 4 4
100 100 100 100 100 100 100 100 100 100 100 100 100 100 100 100 100 100 100 100 100 100 100 100 100 100 100 99 99 100 91 68 17 5 5 17 61 10 3 0 0 0 0 1
100 100 100 100 100 100 100 100 73 100 100 100 100 100 100 100 100 100 100 100 100 100 100 100 93 57 42 45 41 90 42 16 12 82 96 6 4 4 0 0 0 0 0 0
100 100 100 100 100 100 100 100 100 100 100 100 100 100 100 100 100 100 100 100 100 100 67 67 43 76 99 100 61 18 5 54 74 26 10 55 5 1 0 0 0 2 2 1
100 100 100 100 100 100 100 100 100 100 100 100 100 100 100 100 100 100 100 100 85 37 66 100 100 100 100 99 91 94 45 5 5 4 3 2 0 4 5 5 5 5 6 5
94 83 100 100 100 100 100 100 100 100 100 100 100 100 100 100 100 100 100 100 100 99 100 100 100 100 99 94 24 20 5 5 5 5 20 5 5 5 5 5 5 8 31 78
6 31 99 93 99 100 92 100 100 100 100 100 100 100 100 100 100 100 100 100 100 100 90 96 42 24 58 5 5 5 5 3 5 5 5 5 5 5 15 82 94 100 100 100
26 46 6 5 6 11 24 29 6 5 6 36 81 29 45 73 31 62 75 58 15 73 41 57 55 15 0 0 0 0 0 0 2 5 5 6 52 98 100 99 100 100 91 86
6 25 57 14 88 30 5 24 27 73 18 16 40 5 14 15 18 38 23 62 54 76 34 78 79 68 5 16 21 5 5 5 5 5 5 37 74 73 21 46 71 94 94 99
21 12 6 35 6 7 38 82 65 49 65 68 23 79 24 90 13 33 32 37 63 63 70 71 85 11 94 74 70 18 22 17 24 35 58 45 13 24 92 97 99 100 100 100
4 5 2 7 5 4 10 97 44 56 24 84 94 77 86 55 90 34 20 77 76 62 96 37 8 95 100 100 100 100 97 100 89 23 92 99 76 82 88 98 100 100 100 100
50 21 28 17 44 9 7 5 5 5 7 99 92 100 100 100 86 54 73 23 66 98 99 5 42 81 67 79 95 92 78 100 99 100 99 100 100 100 100 100 100 100 94 80
72 25 5 38 53 69 71 61 5 5 7 70 89 84 94 95 92 56 43 98 72 40 14 34 48 41 40 44 96 98 27 97 100 88 83 100 100 100 100 100 100 100 100 95
21 82 65 69 33 19 85 79 5 32 95 89 81 85 96 69 37 95 50 75 63 90 61 74 46 50 29 42 73 75 88 100 96 100 84 96 100 99 89 99 98 93 96 78
9 74 86 70 20 6 60 76 5 9 5 73 20 93 53 47 86 70 31 32 38 23 94 75 94 67 99 69 35 99 79 97 92 30 96 98 100 100 87 98 100 100 72 80

GFSNW_prec_cloud_210.txt.gz
Cloud_Cover
53 100 100 100 100 1 100 97 100 5 43 100 100 100 100 100 100 100 100 100 100 100 100 100 100 100 100 100 100 80 82 100 100 100 13 58 98 91 100 100 100 98 8 12
94 100 100 100 100 81 15 99 98 83 100 98 100 63 100 100 100 100 100 100 100 100 100 100 100 100 100 100 100 100 81 60 84 100 84 87 100 100 100 99 100 83 66 55
100 100 100 100 100 100 11 100 97 100 100 46 90 96 100 100 99 100 100 100 100 100 100 100 100 100 100 100 100 100 100 100 76 93 100 82 98 91 100 100 54 99 100 100
100 92 100 100 100 100 100 88 70 5 100 100 68 100 85 100 100 100 100 100 100 100 100 100 100 100 100 100 100 100 100 91 100 100 72 100 97 100 100 95 95 32 93 100
100 100 100 100 100 100 100 100 92 55 100 97 93 98 100 100 100 100 100 100 100 100 100 100 100 100 100 100 100 100 100 100 100 100 100 100 72 46 100 100 100 100 78 65
100 100 100 100 100 100 82 93 96 100 16 100 100 44 100 100 100 100 100 100 100 100 100 100 100 100 100 100 100 100 100 100 100 100 100 100 100 99 100 100 98 100 100 100
100 100 100 100 100 100 100 86 90 83 24 100 66 85 100 100 100 100 100 100 100 100 100 100 100 100 100 100 100 100 100 100 100 100 100 100 94 42 100 100 100 100 100 100
100 100 100 100 100 100 100 100 100 100 90 100 95 100 50 100 100 100 100 100 100 100 100 100 100 100 100 100 100 100 100 100 100 100 100 100 100 100 100 100 100 100 100 100
7 98 100 100 100 100 100 100 100 100 100 100 100 63 100 100 100 100 100 100 75 100 100 100 100 100 100 100 100 100 100 100 100 100 100 100 100 100 100 100 48 93 100 94
88 5 94 100 100 100 100 100 100 100 100 100 100 77 41 100 100 100 100 100 100 100 100 100 100 100 100 100 100 100 100 100 100 100 100 100 100 100 100 100 99 87 6 5
100 98 100 91 100 100 100 100 33 100 100 100 100 100 100 98 100 100 100 100 100 100 100 100 100 100 100 100 100 100 100 100 100 100 100 100 100 100 100 100 100 100 60 52
100 100 100 100 100 100 100 100 88 100 100 100 100 100 100 71 100 100 99 82 96 94 100 100 100 100 100 100 100 100 100 100 100 100 100 100 100 100 100 100 100 100 99 68
100 100 100 100 100 100 100 100 100 100 100 100 100 100 100 100 100 100 100 97 100 99 90 100 100 100 100 100 100 100 100 100 100 100 100 100 100 100 100 97 69 48 9 5
100 100 100 100 100 100 100 100 100 100 100 100 100 100 100 100 100 60 26 69 92 100 100 100 100 100 100 100 100 100 100 100 100 100 100 100 100 100 100 92 89 100 75 5
100 100 100 100 100 100 100 100 100 100 100 100 100 100 100 100 100 100 100 100 100 100 100 100 100 100 100 100 100 100 100 100 100 100 100 100 100 100 100 83 68 13 62 5
100 100 100 100 100 100 100 100 100 100 100 100 100 100 100 100 100 100 100 100 100 100 99 100 100 100 100 100 100 100 100 100 100 100 100 100 98 62 83 100 100 27 5 2
100 100 100 100 100 100 100 100 100 100 100 100 100 100 100 100 100 100 100 100 100 99 100 100 100 100 100 100 100 100 100 100 100 100 100 100 96 52 44 85 8 4 5 5
100 100 100 100 100 100 100 100 100 100 100 100 100 100 100 100 100 100 100 100 100 85 100 100 100 100 100 100 100 100 100 100 100 100 100 100 100 92 42 7 5 6 8 62
100 100 100 100 100 100 100 100 100 100 100 100 100 100 100 100 100 100 100 100 100 100 100 100 100 100 100 100 100 100 100 100 100 100 100 95 37 46 32 10 38 51 9 68
100 100 100 100 100 100 100 100 100 100 100 100 100 100 100 100 100 100 100 100 100 100 100 100 100 100 100 100 100 100 100 100 100 100 100 61 100 10 24 28 11 17 19 59
100 100 100 100 100 100 100 100 100 100 100 100 100 90 100 100 100 100 100 100 100 100 100 87 55 77 100 100 98 91 100 98 85 66 55 23 26 6 5 5 10 63 79 100
62 83 100 100 100 100 100 100 100 100 100 100 100 100 100 100 100 100 100 100 100 100 100 100 99 100 100 98 100 58 6 5 5 5 5 5 5 5 6 51 73 99 93 35
5 6 46 55 63 100 100 100 100 100 100 100 100 100 100 100 100 88 65 87 100 96 100 95 97 100 99 100 100 82 71 43 42 8 5 5 38 49 64 76 56 46 95 91
5 2 2 5 86 96 100 93 99 100 100 100 100 100 100 96 97 100 100 100 100 100 100 94 100 95 99 100 100 96 100 100 86 100 93 85 79 41 17 23 36 67 100 100
6 3 23 98 100 100 100 98 100 91 94 100 100 100 100 100 100 100 100 100 100 94 90 88 98 79 97 100 100 100 100 56 96 100 23 28 46 85 62 87 91 72 96 100
5 26 96 78 90 84 100 71 100 94 92 53 56 70 97 99 96 96 64 30 23 22 59 78 97 100 99 97 100 87 5 5 17 27 64 89 91 100 100 100 94 100 100 100
5 78 100 89 79 71 53 81 67 63 82 96 92 85 97 87 95 91 68 82 49 44 63 74 59 72 83 100 100 100 82 29 18 99 100 100 100 100 100 100 100 100 100 100

GFSNW_prec_cloud_216.txt.gz
Cloud_Cover
100 99 22 40 42 76 100 100 100 5 5 100 100 100 5 100 100 100 100 100 100 100 100 100 100 86 100 97 100 54 100 100 100 100 100 90 98 100 100 100 100 99 85 100
85 86 100 97 62 81 100 100 100 100 100 100 100 34 38 100 100 100 100 100 100 100 100 100 100 100 100 100 97 100 100 100 100 98 100 100 100 100 100 100 70 77 82 98
74 65 70 100 100 97 100 100 100 100 100 96 61 96 55 100 79 100 100 100 100 100 100 100 100 100 100 100 100 100 100 100 100 64 95 100 100 100 89 100 73 70 74 100
6 56 97 100 100 100 100 100 100 30 96 100 8 7 5 46 36 84 100 100 100 100 100 100 100 100 100 100 100 100 100 100 100 100 100 100 100 100 100 100 56 57 100 90
9 98 19 100 100 100 100 100 94 100 83 95 100 98 68 5 5 43 90 100 100 100 100 82 100 100 100 100 100 100 100 100 100 100 100 100 100 100 100 75 74 88 100 100
55 76 89 69 100 100 100 100 100 100 100 100 100 96 5 3 4 88 33 100 100 100 100 100 100 100 100 100 100 100 100 100 100 100 100 100 100 100 100 100 100 29 43 91
76 100 100 100 100 100 100 100 100 100 100 100 97 100 100 25 98 12 100 68 100 100 100 100 100 100 100 100 100 100 100 100 100 100 100 100 100 100 100 100 100 100 100 100
30 100 100 100 100 100 100 100 100 100 100 100 100 100 100 91 100 100 20 100 100 100 100 100 100 100 100 100 100 100 100 100 100 100 100 100 100 100 100 100 100 100 100 100
100 100 100 100 100 100 100 100 100 100 100 100 100 100 100 100 100 95 5 9 99 100 100 100 100 100 100 100 100 100 100 100 100 100 100 100 100 100 100 100 100 100 100 100
100 100 100 100 100 100 100 100 100 100 100 100 100 100 100 96 100 94 52 1 56 100 100 100 100 100 61 100 100 100 100 100 100 100 100 100 100 100 100 100 100 100 100 100
97 100 100 100 100 100 100 100 100 100 100 100 100 100 100 100 100 100 100 94 89 100 100 100 100 100 100 92 92 100 100 100 100 100 100 100 100 100 100 100 100 100 100 100
93 100 100 46 20 100 100 100 100 100 100 100 100 100 100 100 98 100 100 100 93 100 100 100 100 100 100 99 100 100 100 100 100 100 100 100 100 100 100 100 100 100 100 100
100 100 100 100 64 30 57 100 100 100 100 100 100 100 100 100 100 100 100 100 100 100 80 100 100 100 100 100 100 100 100 100 100 100 100 100 100 100 100 100 100 100 100 100
100 100 100 100 92 100 93 100 100 100 100 100 100 87 100 100 100 100 100 88 100 100 100 100 100 100 100 100 100 100 100 100 100 100 100 100 100 100 100 100 100 100 100 100
100 100 100 100 100 100 100 100 100 94 100 100 100 100 100 100 100 100 100 100 100 100 100 100 100 100 100 100 100 100 100 100 100 100 100 100 100 100 100 100 100 100 100 100
100 100 100 100 100 100 100 100 100 99 100 100 100 100 100 100 100 100 100 100 100 100 100 100 100 100 100 100 100 100 100 100 100 100 100 100 100 100 100 100 100 100 100 100
100 100 100 100 100 100 100 100 100 100 100 100 100 100 100 100 100 100 100 100 100 100 100 100 100 100 100 100 100 99 100 100 100 100 100 99 100 100 100 100 100 100 100 100
100 100 100 100 100 100 100 100 100 100 100 100 100 100 100 100 100 100 100 100 100 100 100 100 100 100 100 100 100 100 100 99 96 98 56 90 100 100 100 100 100 100 100 100
100 100 100 100 100 100 100 100 100 100 100 100 100 100 100 100 100 100 100 100 100 100 100 100 100 100 85 9 100 100 100 100 94 96 99 92 69 97 100 100 100 100 100 100
100 100 100 100 100 100 100 100 100 100 100 100 100 100 100 100 100 100 100 100 100 100 100 100 100 82 95 55 100 100 100 100 100 100 100 100 93 100 100 99 100 100 100 100
92 100 100 100 100 100 100 100 100 100 100 100 100 100 100 100 100 100 100 100 100 100 100 100 100 100 100 100 100 100 100 100 100 99 98 81 97 100 100 100 100 100 100 100
7 99 100 100 100 100 100 89 100 98 100 100 100 100 100 100 100 100 100 100 100 100 100 100 100 100 100 100 100 100 54 71 100 96 99 99 100 100 100 100 100 100 100 100
49 65 100 100 97 100 100 100 100 100 91 94 98 96 100 100 100 100 100 100 100 100 100 100 100 100 100 100 100 100 100 100 97 60 100 100 99 100 100 100 100 100 100 100
49 40 27 99 100 100 100 100 100 85 87 100 100 100 100 100 100 97 100 100 100 100 100 100 100 99 98 100 100 100 100 100 100 100 100 100 100 96 100 100 100 100 100 98
71 72 82 75 80 100 100 100 100 100 100 100 100 89 93 96 100 95 64 98 97 100 100 100 100 100 100 100 100 100 100 100 100 100 100 100 100 100 100 100 100 100 100 98
78 70 70 76 100 51 100 100 100 100 100 100 100 100 100 100 100 100 97 98 100 100 100 100 100 100 100 100 100 100 100 100 100 100 100 100 100 100 100 100 100 100 100 100
86 77 99 100 93 85 22 70 100 100 100 100 100 100 100 95 100 100 100 100 100 100 99 93 95 100 100 100 100 100 100 100 100 68 100 99 100 100 100 100 96 100 100 100

GFSNW_prec_cloud_222.txt.gz
Cloud_Cover
5 24 5 100 100 100 100 100 100 100 99 100 100 100 0 0 0 21 100 100 100 100 99 100 100 100 5 73 100 100 88 99 100 100 100 100 100 100 100 86 2 42 62 23
5 28 7 100 100 100 100 100 100 68 100 99 100 39 14 3 0 0 0 10 96 100 100 100 100 100 82 100 100 18 54 100 100 100 100 100 100 100 99 66 100 5 49 22
5 31 43 100 100 100 90 100 100 100 100 15 34 100 58 78 4 1 0 0 0 48 98 100 100 100 100 100 100 100 100 100 100 79 99 99 100 100 100 100 100 100 80 44
57 86 92 100 100 100 100 100 100 69 93 100 94 41 33 100 94 5 3 2 0 0 69 100 100 100 100 100 100 100 100 100 100 92 100 100 100 100 100 100 100 100 100 97
32 5 70 100 100 100 100 100 100 100 74 91 100 100 100 95 5 5 5 2 0 0 0 35 100 98 100 100 100 100 100 100 100 100 87 100 100 100 100 100 100 100 100 100
5 5 29 93 100 100 100 100 100 100 100 100 100 67 54 91 96 10 5 0 10 94 0 0 91 100 100 100 100 100 100 100 100 100 100 100 100 100 100 100 100 100 96 100
5 5 5 71 100 100 100 100 100 100 100 100 91 100 100 100 59 3 32 90 100 42 92 0 1 100 100 100 100 100 100 100 100 100 100 100 100 100 100 100 100 100 100 100
5 5 5 6 100 100 100 100 100 100 100 100 100 100 100 100 100 100 100 100 100 100 99 5 2 77 100 100 100 100 100 100 100 100 100 100 100 100 100 100 100 100 100 100
5 5 5 5 94 100 100 100 100 100 100 100 100 100 100 71 62 100 100 100 100 100 100 98 52 5 15 72 93 100 100 100 100 100 100 100 100 100 100 100 100 100 100 100
5 5 5 5 25 100 100 100 100 100 100 100 100 100 100 100 100 100 100 88 100 100 38 100 99 100 98 100 100 100 100 100 100 100 100 100 99 100 100 100 100 100 100 100
5 5 5 18 71 100 100 100 100 100 100 100 100 100 100 100 100 100 100 100 100 100 64 72 99 60 9 98 100 100 100 100 100 100 100 100 100 100 100 100 100 100 100 100
5 5 13 96 100 100 100 99 98 100 100 100 100 100 100 100 100 100 100 51 25 5 19 95 34 6 100 88 94 100 100 100 100 100 100 100 100 99 100 98 100 100 100 100
5 6 99 100 55 45 100 100 100 100 100 100 100 100 100 99 100 100 100 77 100 100 95 100 62 99 30 96 38 4 88 100 100 100 100 100 100 100 100 100 70 100 100 100
5 89 100 100 98 41 71 62 89 100 100 100 100 100 96 100 100 100 100 100 100 100 87 100 98 100 79 94 88 100 100 100 100 100 100 100 100 100 100 100 100 100 100 100
12 100 100 100 74 79 24 6 47 100 100 100 100 100 100 100 100 100 100 100 100 100 100 100 93 46 96 100 100 100 100 100 100 100 100 100 100 100 100 100 100 100 100 100
32 100 100 100 100 100 96 89 84 16 100 100 100 100 100 100 100 100 100 100 100 100 100 100 94 37 72 93 100 43 100 100 100 100 100 100 100 100 100 100 100 100 100 100
11 100 100 100 100 100 82 82 90 100 100 100 100 98 100 100 100 100 100 100 100 100 100 100 79 100 100 52 5 93 100 100 100 100 100 100 100 100 100 100 100 100 100 100
1 100 100 100 99 97 100 100 100 100 100 100 100 100 100 100 100 100 100 100 100 100 100 100 100 100 100 88 4 25 97 100 100 100 100 100 100 100 100 100 100 100 100 100
1 82 100 100 100 90 99 100 100 100 100 100 100 100 100 100 100 100 100 100 100 100 100 100 100 100 98 12 34 100 40 100 100 100 100 100 100 100 100 100 100 100 100 100
5 26 100 100 88 16 75 100 100 100 100 100 100 100 100 100 100 100 100 100 100 100 100 93 100 53 87 6 81 100 70 97 100 100 100 100 100 100 100 100 100 100 100 100
3 35 94 100 100 100 93 95 92 96 100 90 87 100 100 100 100 100 100 99 100 100 100 100 100 100 100 84 7 52 48 5 100 100 100 100 100 100 100 100 100 100 100 100
61 82 97 100 100 100 100 100 99 90 58 45 84 100 100 100 100 100 100 100 100 99 99 93 78 77 100 100 100 100 100 85 100 100 100 100 100 100 100 100 100 100 100 100
87 100 100 81 94 100 100 100 99 64 64 64 63 93 100 100 100 100 100 100 100 100 100 99 67 100 100 100 100 100 85 100 100 100 100 100 100 100 100 100 100 100 100 100
98 96 49 10 55 98 100 100 100 99 92 81 80 100 100 100 100 100 100 100 100 100 100 100 100 100 100 100 100 100 100 100 100 100 100 100 100 100 100 100 100 100 100 100
8 48 62 79 10 9 23 90 100 100 100 84 90 100 100 100 100 100 100 100 100 100 100 100 100 100 100 100 100 100 100 100 100 100 100 100 100 100 100 100 100 100 100 100
26 86 26 45 58 33 45 79 72 100 100 100 100 80 96 98 89 100 100 100 100 100 100 100 100 100 100 100 100 100 100 100 100 100 100 100 100 100 100 100 100 100 100 100
98 92 97 99 96 99 100 99 91 73 74 100 100 100 100 88 100 100 100 100 100 100 100 100 100 100 100 100 100 100 100 100 100 100 100 100 100 100 100 100 100 100 100 100

GFSNW_prec_cloud_225.txt.gz
Cloud_Cover
16 5 5 5 5 29 100 100 100 100 100 100 100 70 5 2 0 2 8 34 100 100 100 58 100 100 100 100 100 100 100 100 99 86 100 100 100 97 100 100 36 100 11 8
5 5 5 5 5 79 100 100 100 100 100 100 100 74 14 5 3 5 0 2 33 100 100 100 100 100 100 100 100 89 100 100 100 100 100 100 96 100 100 96 56 25 71 26
8 7 5 5 11 94 100 100 100 100 100 93 18 94 75 100 92 86 50 9 3 0 55 100 100 100 100 100 100 100 100 100 100 94 56 92 99 100 100 100 100 100 62 77
5 5 5 50 100 100 100 100 100 50 86 98 100 23 5 80 98 63 95 62 10 0 0 8 93 100 100 100 100 100 100 100 100 5 8 100 56 62 100 100 100 96 58 96
5 5 5 78 100 100 100 100 100 100 12 91 93 94 40 5 5 97 32 81 5 4 2 0 5 95 100 100 100 100 100 100 100 100 6 100 99 43 76 100 45 77 5 68
7 19 5 30 100 100 100 100 100 100 100 100 100 76 18 61 96 96 12 0 17 50 1 0 0 6 84 100 100 100 100 100 100 100 56 100 100 78 57 84 51 4 10 42
48 9 5 5 82 100 100 100 100 100 100 100 97 98 100 100 100 86 100 100 100 3 0 95 100 100 37 79 86 100 100 100 100 100 100 100 100 100 48 61 86 78 45 50
7 5 5 5 7 98 92 100 100 100 100 100 99 98 100 100 100 100 100 100 19 66 100 100 100 47 16 4 7 100 100 100 100 100 100 100 100 100 95 26 7 8 62 100
5 5 5 21 5 5 70 100 100 100 100 96 100 100 100 100 100 100 99 100 100 100 100 100 100 97 5 5 5 6 100 100 100 100 100 100 98 76 100 100 38 100 100 100
5 5 5 80 53 83 99 100 100 100 100 100 100 100 100 100 100 100 100 100 100 100 100 100 100 73 29 81 13 79 100 100 100 100 100 100 100 100 100 100 100 100 100 100
5 5 5 18 100 100 100 100 100 100 100 100 100 100 100 100 100 100 100 100 100 100 100 100 94 97 16 45 6 100 100 100 100 100 100 100 100 100 100 100 100 100 100 100
5 5 5 89 100 100 100 100 100 100 100 100 100 100 100 100 100 100 100 100 100 100 96 69 30 5 15 5 96 100 100 98 93 100 82 98 100 100 100 100 100 100 100 100
5 5 5 100 100 100 100 100 100 100 100 100 100 100 100 100 100 100 100 100 100 81 77 50 85 21 5 5 37 100 100 100 100 100 86 100 100 100 100 100 100 100 100 100
28 89 66 100 100 100 100 94 86 81 100 100 100 100 100 100 100 100 100 100 100 100 99 100 100 54 11 16 13 97 100 100 100 100 100 100 100 100 100 100 100 100 100 100
100 100 100 100 100 100 75 36 38 91 75 100 100 100 100 100 100 100 100 100 100 100 100 100 92 40 79 55 86 66 100 100 100 100 100 100 100 100 100 100 100 100 100 100
84 95 100 100 100 100 68 44 89 94 75 99 100 100 100 100 100 100 100 100 100 100 100 100 64 8 90 78 13 0 14 100 100 100 100 100 100 100 100 100 100 100 100 100
5 12 83 100 100 100 97 44 96 93 69 97 100 100 100 100 100 100 100 100 100 84 100 100 39 15 11 65 59 0 0 100 100 100 100 100 100 100 100 100 100 100 100 100
5 4 87 100 100 100 100 100 100 100 100 100 100 100 100 100 100 100 100 100 100 100 100 85 92 95 100 100 5 5 0 87 100 100 24 32 35 100 100 100 100 100 100 100
5 4 56 100 98 98 28 100 100 100 100 100 100 100 77 99 100 100 100 100 100 81 98 90 98 96 92 3 1 0 5 36 100 100 100 100 100 100 100 100 100 100 100 100
2 5 6 99 100 82 95 95 98 100 100 100 100 100 100 100 100 92 78 100 100 97 42 95 100 98 10 20 3 5 50 21 100 100 100 100 100 100 100 100 100 100 100 100
6 52 90 61 100 100 88 94 100 98 100 100 100 100 100 100 100 100 100 77 98 100 81 100 100 100 100 76 7 95 100 78 35 100 100 100 100 100 100 100 100 100 100 100
66 95 91 100 100 100 100 100 100 100 100 97 90 100 100 100 100 100 100 87 94 100 94 100 100 73 94 100 100 100 100 100 86 98 100 100 100 100 100 100 100 100 100 100
100 100 100 97 22 99 100 100 100 100 99 100 90 85 79 100 100 100 100 100 100 100 100 100 100 97 83 93 100 100 99 100 100 100 100 100 100 100 100 100 100 100 100 100
100 100 61 67 7 67 72 100 100 100 100 100 99 78 98 100 100 100 100 84 100 100 100 100 93 100 100 100 100 100 100 100 100 100 100 100 100 100 100 100 100 100 100 100
84 89 63 39 6 5 5 11 99 100 100 100 98 83 98 100 99 100 100 100 99 98 100 100 100 100 100 100 100 100 100 100 100 100 100 100 100 100 100 100 100 100 100 100
87 95 60 6 76 78 92 73 57 29 99 100 100 100 100 100 99 100 100 100 100 100 100 100 100 100 100 100 100 100 100 100 100 100 100 100 100 100 100 100 100 100 100 100
94 95 39 61 99 85 99 98 94 76 100 100 100 100 100 100 100 100 100 98 100 100 100 100 100 100 100 100 100 100 100 100 100 100 100 100 100 100 100 100 100 100 100 100